Preview of NWS' New Version of Forecast
This preview is not operational and should not be used for support decisions.

Regional Weather Roundup (RWR)

Issued by Pendleton, OR (PDT)

                            
520 
ASUS46 KPDT 212325
RWRPDT
PENDLETON REGIONAL WEATHER ROUNDUP
NATIONAL WEATHER SERVICE PENDLETON OREGON
400 PM PDT THU JUN 21 2018

NOTE: FAIR INDICATES FEW OR NO CLOUDS BELOW 12,000 FEET WITH NO
SIGNIFICANT WEATHER AND/OR OBSTRUCTIONS TO VISIBILITY.

# INDICATES UNOFFICIAL STATION AND DATA

WAZ520-220010-
EAST SLOPES OF WASHINGTON CASCADES

CITY            SKY/WX      TMP DP  RH  WIND    PRES   REMARKS
#BULLFROG       N/A         75  54  48  W8      N/A                          
#CLE ELUM HS    N/A         73  53  49  W14     29.96F                       
#EASTON DOT     N/A         N/A N/A N/A N5      N/A                          
#ELK HTS DOT    N/A         78  77  97  W8      N/A                          
#NELSON 3SW     N/A         74  51  44  CALM    30.11R                       
#NILE           N/A         82  49  32  W3      29.29F                       
#RONALD 2NW     N/A          0  N/A N/A CALM    29.93S                       
#TEANAWAY 4NE   N/A         78  56  47  W12     N/A                          
#TROUT LAKE 1NE N/A         77  57  50  W7      29.93F                       
#TROUT LAKE 1E  N/A         81  54  39  NW1     30.05F                       
$$

WAZ521-220010-
SIMCOE HIGHLANDS

CITY            SKY/WX      TMP DP  RH  WIND    PRES   REMARKS
#BICKLETON HS   N/A         77  52  42  S8      29.68F                       
#SATUS PASS DOT N/A         82  42  24  W20G32  N/A                          
#CENTERVILLE 1SWN/A         77  54  45  W20     29.88F                       
#GOLDENDALE 1NE N/A         82  24  12  SW5     N/A                          
#GOLDENDALE 4W  N/A         79  24  13  W22     30.01F                       
#GOODNOE HILLS  N/A         86  55  35  W21     29.87F                       
#LYLE 6NE       N/A         75  57  54  W12     29.97F                       
#PITT 4SE       N/A         71  55  57  SW13G24 29.96F                       
$$

WAZ026-220010-
KITTITAS VALLEY

CITY            SKY/WX      TMP DP  RH  WIND    PRES   REMARKS
ELLENSBURG AP   PTCLDY      85  46  26  NW25G35 29.95S                       
#ELLENSBURG CWU N/A         83  44  25  NW18    29.80F                       
#ELLENSBURG 3NE N/A         81  51  35  N9G26   28.02F                       
#ELLENSBURG 1E  N/A         83  44  25  W7      29.93S                       
#KITTITAS 3S    N/A         83  46  27  NW16G29 29.83S                       
#MANASTASH RDG  N/A         79  79  100 N20G29  N/A                          
#ROCKY CYN DOT  N/A         83  49  31  W22G32  N/A                          
#RYEGRASS DOT   N/A         80  45  29  CALM    N/A                          
#THORP 6N       N/A         74  60  62  CALM    29.85F                       
$$

WAZ027-220010-
YAKIMA VALLEY

CITY            SKY/WX      TMP DP  RH  WIND    PRES   REMARKS
SUNNYSIDE AP    MOCLDY      78  47  34  W6      29.88F                       
YAKIMA AIRPORT  PTCLDY      88  52  29  W8      29.89F                       
YAKIMA-VAGABOND SUNNY       93  39  15  NW15    29.88F HX 89                 
#DONALD 2NE     N/A         93  28  10  S5      28.74F HX 88                 
#GRANDVIEW      N/A         89  48  24  W1      29.85F                       
#MABTON         N/A         89  57  34  CALM    29.87F                       
#NACHES 2SW     N/A         87  53  31  W7      29.95F                       
#OUTLOOK DOT    N/A         90  46  22  S2      29.86F HX 87                 
#PARKER DOT     N/A         91  48  23  NE5     29.89F HX 88                 
#TERRACE HTS    N/A         91  55  30  SE3     29.79F HX 89                 
#TOPPENISH      N/A         90  52  27  CALM    29.76F HX 87                 
#I82 S UMTANUM RN/A         87  45  23  W13G24  N/A                          
#UNION GAP DOT  N/A         90  52  27  S5      29.91F HX 87                 
#W YAKIMA       N/A         89  50  26  E2      29.83F                       
#WHITE SWAN 5E  N/A         90  59  35  CALM    29.83F HX 89                 
#ZILLAH DOT     N/A         92  50  24  SW3     N/A    HX 89                 
$$

WAZ028-220010-
LOWER COLUMBIA BASIN...WASHINGTON

CITY            SKY/WX      TMP DP  RH  WIND    PRES   REMARKS
HANFORD         CLOUDY      91  46  21  NW9     29.86F HX 87                 
PASCO           CLOUDY      91  54  29  S13     29.88F HX 89                 
PROSSER AWOS    N/A         90  52  27  W9      29.90F HX 87                 
RICHLAND AWOS   CLOUDY      94  52  24  S13     29.86F HX 91                 
#BASIN CITY 5SW N/A         87  67  52  CALM    29.82F                       
#BENTON CITY    N/A         88  58  36  CALM    29.74F                       
#CONNELL 5N     N/A         87  59  39  SW3     29.85F                       
#CONNELL 5NW    N/A         86  62  45  SW5     29.80F                       
#ELTOPIA 6NW    N/A         82  65  56  CALM    28.87F                       
#KAHLOTUS       N/A         83  55  38  NW10    29.84F                       
#KENNEWICK 3S   N/A         87  58  38  SW7     29.85F                       
#PROSSER DOT    N/A         92  45  20  SW3     29.89F HX 88                 
#SAGEMOOR 2W    N/A         87  64  46  S6      29.70F                       
#TOUCHET 2S     N/A         86  62  45  W3      29.84S                       
$$

WAZ029-220010-
FOOTHILLS OF THE BLUES...WASHINGTON

CITY            SKY/WX      TMP DP  RH  WIND    PRES   REMARKS
WALLA WALLA AP  MOCLDY      85  55  36  S8      29.93F                       
#CLYDE 6NW      N/A         83  56  40  W7      29.83F                       
#DELANEY DOT    N/A         85  55  36  S13     29.93                        
#LOWDEN 2SE     N/A         86  60  42  W7      29.86F                       
#PRESCOTT       N/A         86  59  40  CALM    29.84F                       
#WHITMAN COLLEGEN/A         84  56  38  W8      29.91F                       
#WAITSBURG 6SSE N/A         81  54  39  S6      29.71F                       
#WAITSBURG 8N   N/A          0  N/A N/A S5      29.71F                       
#WALLA WALLA 5E N/A         85  62  46  W6      N/A                          
#WHITMAN MISSIONN/A         86  59  40  W7      29.88S                       
$$

WAZ030-220010-
BLUE MOUNTAINS...WASHINGTON
 
CITY            SKY/WX      TMP DP  RH  WIND    PRES   REMARKS
#DIXIE 5SE      N/A         74  57  55  SW6     29.96F                       
$$

ORZ009-041-WAZ024-220010-
COLUMBIA RIVER GORGE

CITY            SKY/WX      TMP DP  RH  WIND    PRES   REMARKS
HOOD RIVER AP   SUNNY       72  54  53  W17G29  30.03F                       
THE DALLES AP   SUNNY       80  54  41  NW23G31 29.97F                       
#ARLINGTON AIRPON/A         86  56  36  W21     29.88F                       
#CELILO DOT     N/A         84  57  40  SW12    N/A                          
#LYLE           N/A         74  57  55  W20G32  29.99F                       
#MARYHILL       N/A         82  51  34  N25G32  29.80F                       
#MURDOCK        N/A         75  58  56  W17G28  29.92F                       
#RUFUS DOT      N/A         85  54  35  W21G28  N/A                          
#SMITHVILLE     N/A         78  57  48  W14G26  29.93F                       

$$

ORZ510-220010-
NORTH CENTRAL OREGON

CITY            SKY/WX      TMP DP  RH  WIND    PRES   REMARKS
#ANTELOPE       N/A         76  59  56  N1      29.77S                       
#COW CYN RST AREN/A         78  49  36  SW6     N/A                          
#DUFUR          N/A         82  58  44  N7      29.88F                       
#DUFUR 9E       N/A         72  55  55  NW21    29.98F                       
#GRASS VALLEY 1SN/A         81  56  42  N14     30.04F                       
#KENT DOT       N/A         80  47  31  W8      N/A                          
#MAUPIN SCHOOL  N/A         90  60  37  W6      29.99F HX 90                 
#SHANIKO 5WSW   N/A         78  52  40  NW8     N/A                          
#TYGH VALLEY 2NEN/A         86  60  42  N7      29.88F                       
#WAPANITIA AIRPON/A         84  53  34  W9      29.91F                       
#WASCO DOT      N/A         80  53  39  W17G29  N/A                          
#WASCO 5NE      N/A         82  55  40  W9      29.90S                       
$$

ORZ511-220010-
CENTRAL OREGON

CITY            SKY/WX      TMP DP  RH  WIND    PRES   REMARKS
BEND AIRPORT    SUNNY       82  41  23  N7      30.07F                       
MADRAS AIRPORT  SUNNY       81  50  34  N8      30.05F                       
PRINEVILLE AP   SUNNY       82  43  25  VRB5    30.07F                       
REDMOND AIRPORT MOSUNNY     85  45  25  CALM    30.06F                       
#ASHWOOD SCHOOL N/A         83  49  31  W1      30.00F                       
#BEND 1SW       N/A         81  41  24  CALM    N/A                          
#BEND-AWBREY    N/A         85  51  31  NE1     29.93F                       
#BEND-KIM LN    N/A         82  52  35  NW6     29.88F                       
#CULVER         N/A         83  49  31  W1      29.74F                       
#CULVER 8W      N/A         88  30  12  S6      30.05S                       
#LAKE BILLY CHINN/A         83  N/A N/A N6      30.06F                       
#POWELL BUTTE   N/A         81  41  24  NE2     30.02F                       
#PRINEVILLE     N/A         82  52  35  NW1     30.01F                       
#PRINEVILLE 3N  N/A         81  50  34  E2      29.92F                       
#WARM SPRINGS   N/A         86  53  32  CALM    29.78F                       

$$


ORZ509-220010-
EAST SLOPES OF OREGON CASCADES

CITY            SKY/WX      TMP DP  RH  WIND    PRES   REMARKS
SISTERS AWOS    N/A         79  50  36  SW14    30.04F                       
#BLUE BOX PASS  N/A         70  N/A N/A NW6     N/A                          
#LA PINE 4NW    N/A         77  46  33  SW2     30.00F                       
#LAVA BUTTE DOT N/A         81  32  17  CALM    N/A                          
#SISTERS ODOT   N/A         80  47  31  W6      N/A                          
#SISTERS 3N     N/A         79  49  35  N10     30.09S                       
#SUNRIVER       N/A         79  44  29  SW1     29.97F                       
#TUMALO 3W      N/A         78  49  36  NW9     29.82F                       
#WANOGA BUTTE D N/A         67  43  42  NW7     N/A                          

$$

ORZ044-220010-
LOWER COLUMBIA BASIN...OREGON

CITY            SKY/WX      TMP DP  RH  WIND    PRES   REMARKS
HERMISTON       PTCLDY      96  50  21  W12     29.89F HX 93                 
#BOARDMAN SCHOOLN/A         90  55  31  S14     29.85F HX 88                 
#BOARDMAN 8SW   N/A         89  57  34  W16     29.86F                       
#ECHO 8SW       N/A         91  54  29  NW5     29.91F HX 89                 
#I-84 EX 198 DOTN/A         85  55  36  E12     N/A                          
#IONE SCHOOL    N/A         86  53  32  W13     29.88F                       
#UMATILLA       N/A         91  55  30  W6      29.78  HX 89                 
$$

ORZ507-220010-
NORTHERN FOOTHILLS OF THE BLUES

CITY            SKY/WX      TMP DP  RH  WIND    PRES   REMARKS
PENDLETON AIRPT MOCLDY      85  49  29  NW12    29.94F                       
#ADAMS 3WNW     N/A         84  55  37  W12     29.86F                       
#ATHENA         N/A         80  56  44  W5      29.90F                       
#CAYUSE         N/A         82  54  38  W9      29.86S                       
#HELIX SCHOOL   N/A         82  54  38  W6      29.88F                       
#HELIX 3N       N/A         82  56  41  N3      29.98F                       
#HOLDMAN 6E     N/A         81  58  46  SW6     29.68F                       
#M-FREEWATER 5SEN/A         84  61  46  SW3     29.93F                       
#PENDLETON DNTN N/A         86  52  31  CALM    29.92S                       
#PDT AQUATIC CTRN/A         84  53  34  CALM    29.93F                       
#PDT SUNRIDGE   N/A         85  56  37  NW3     29.94F                       
#PENDLETON 6SE  N/A         84  56  38  NW1     29.83F                       
#PENDLETON 7NW  N/A         84  60  44  NW1     N/A                          
#TUTUILLA       N/A         80  55  42  CALM    29.98F                       
#UMAPINE 2E     N/A         87  62  43  W2      29.88F                       

$$

ORZ508-220010-
SOUTHERN FOOTHILLS OF THE BLUES

CITY            SKY/WX      TMP DP  RH  WIND    PRES   REMARKS
#AJAX           N/A         81  48  32  CALM    30.16F                       
#FOSSIL SCHOOL  N/A         79  52  39  NW8     29.98                        
#HEPPNER EOC    N/A         84  48  29  W8      29.82S                       
#HEPPNER 4NE    N/A         80  51  36  W14     29.88F                       
#LEXINGTON 2SE  N/A         88  51  28  W14     29.92F                       
#RUGGS 5NE      N/A         83  48  30  W12     30.23R                       
#RUGGS 2SW      N/A         82  51  34  N6      29.90F                       

$$

ORZ502-503-220010-
BLUE MOUNTAINS

CITY            SKY/WX      TMP DP  RH  WIND    PRES   REMARKS
MEACHAM         MOCLDY      72  52  49  VRB3    30.08S                       
#BATTLE MTN DOT N/A         77  45  32  CALM    N/A                          
#GRANITE        N/A         80  52  38  E2      29.77F                       
#HARDMAN 10S    N/A         73  51  46  CALM    30.06S                       
#HEPPNER 15SE   N/A         74  55  51  SW2     25.60F                       
#LADD CYN SMT   N/A         74  54  50  NW6     N/A                          
#LADD CREEK ODOTN/A         72  52  49  NE8     N/A                          
#N POWDER DOT   N/A         76  53  45  NE3     N/A                          
#PIKES PEAK     N/A         72  53  51  SW12    27.99S                       
#SUMMERVILLE 5NWN/A         70  64  81  CALM    26.70F                       
#TOLLGATE       N/A         63  55  75  SW2     30.15F                       
#TROY SCHOOL    N/A         77  62  60  CALM    29.74F                       
#UKIAH          N/A         75  59  58  SE3     29.83F                       
$$

ORZ505-220010-
JOHN DAY BASIN

CITY            SKY/WX      TMP DP  RH  WIND    PRES   REMARKS
JOHN DAY        MOCLDY      80  49  34  N5      30.09F                       
#ANTELOPE 9ESE  N/A         87  50  28  S3      N/A                          
#DAYVILLE SCHOOLN/A         83  46  27  N6      29.99                        
#MITCHELL 8NW   N/A         81  48  32  W1      29.97F                       
#MONUMENT HS    N/A         85  49  29  S7      29.96F                       
#SPRAY SCHOOL   N/A         87  N/A N/A CALM    N/A                          
$$

ORZ506-220010-
OCHOCO AND JOHN DAY HIGHLANDS

CITY            SKY/WX      TMP DP  RH  WIND    PRES   REMARKS
#HORSE RIDGE DO N/A         81  37  21  NW7     N/A                          
#IZEE 6NW       N/A         81  50  34  NE5     N/A                          
#KEYES SMT DOT  N/A         75  47  37  W7      N/A                          
#PAULINA ODOT   N/A         78  42  28  SW6     N/A                          
#PINE MTN OBS   N/A         66  44  45  CALM    N/A                          
#PRAIRIE CITY   N/A         77  56  48  NW1     30.22F                       
#SENECA         N/A         73  N/A N/A NW2     N/A                          
#SENECA 9NW     N/A         75  51  43  S2      29.96F                       
$$

ORZ049-220010-
GRANDE RONDE VALLEY

CITY            SKY/WX      TMP DP  RH  WIND    PRES   REMARKS
LA GRANDE       PTCLDY      74  58  57  NE5     30.04F HAZE                  
#COVE SCHOOL    N/A         77  59  54  CALM    30.05F                       
#COVE 6NW       N/A         76  59  56  CALM    29.92F                       
#ELGIN 3N       N/A         72  57  59  CALM    30.00F                       
#ELGIN 1E       N/A         74  59  59  CALM    N/A                          
#IMBLER SCHOOL  N/A         72  60  66  CALM    29.99F                       
#ISLAND CITY 4N N/A         69  62  78  CALM    30.14S                       
#LADD CYN DOT   N/A         75  58  56  NE3     N/A                          
#UNION 1S       N/A         77  61  58  CALM    29.93F                       
$$

ORZ050-220010-
WALLOWA COUNTY

CITY            SKY/WX      TMP DP  RH  WIND    PRES   REMARKS
#ENTERPRISE HS  N/A         71  56  59  N5      29.81F                       
#JOSEPH         N/A         68  51  55  CALM    30.28F                       
#JOSEPH 3N      N/A         67  51  56  NW2     30.11S                       
#JOSEPH 3W      N/A         66  57  73  CALM    29.95F                       
#LOSTINE        N/A         71  55  57  CALM    29.73F                       
#LOSTINE 3SE    N/A         70  53  55  E6      30.14S                       
#MT HOWARD 8000 N/A         49  46  89  W7      30.27S                       
#PROMISE 1S     N/A         67  59  75  W5      30.00F                       
#WALLOWA LAKE   N/A         66  56  70  CALM    30.14F                       



$$